Simultaneous Nadir Overpasses (SNOs) Predictions

Prediction of SNOs between AQUA and METOP-A Satellite Orbit:

Table of predicted SNOs for the next 14.0 days since TLE Epoch: 7/10/2015
Index Date (AQUA) Time (AQUA) Lat,Lon (AQUA) SZA (AQUA ) Date (METOP-A) Time (METOP-A) Lat,Lon (METOP-A) SZA (METOP-A ) Distance(km) Time Diff (sec)
1 07/12/2015 16:39:22 -73.94, 104.29 127.95 07/12/2015 16:39:02 -73.93, 104.37 127.96 2.51 20
2 07/12/2015 17:28:51 74.00, -88.22 52.13 07/12/2015 17:29:40 74.00, -88.11 52.12 3.30 49
3 07/15/2015 11:23:58 73.37, 4.30 51.87 07/15/2015 11:22:50 73.31, 2.04 51.92 72.45 68
4 07/15/2015 12:13:34 -73.93, 170.75 127.53 07/15/2015 12:13:20 -73.92, 170.75 127.54 1.44 14
5 07/15/2015 13:03:03 74.00, -21.77 52.55 07/15/2015 13:03:58 73.99, -21.74 52.53 1.49 55
6 07/18/2015 06:58:15 73.60, 70.27 52.58 07/18/2015 06:57:05 73.49, 68.86 52.55 45.89 70
7 07/18/2015 07:47:47 -73.94,-122.84 127.05 07/18/2015 07:47:38 -73.95,-122.75 127.04 2.73 9
8 07/18/2015 08:37:15 73.97, 44.75 52.99 07/18/2015 08:38:17 73.97, 44.63 52.98 3.64 62
9 07/21/2015 02:32:31 73.80, 136.29 53.31 07/21/2015 02:31:18 73.77, 135.91 53.31 12.15 73
10 07/21/2015 03:21:59 -73.92, -56.35 126.55 07/21/2015 03:21:57 -73.93, -56.39 126.55 1.29 2
11 07/21/2015 04:11:28 74.00, 111.10 53.54 07/21/2015 04:12:35 73.99, 111.10 53.52 1.48 67
12 07/23/2015 22:06:43 73.86,-157.40 53.93 07/23/2015 22:05:33 73.89,-157.39 53.98 3.46 70
13 07/23/2015 22:56:10 -73.92, 10.09 125.99 07/23/2015 22:56:14 -73.95, 10.09 125.96 3.00 4




NCC Satellite Simultaneous Nadir Overpasses (SNOs) Prediction Service
